Location: Chippewa Lake
(41.0698°N, 81.9010°W)
Time: 02:15:21
(UTC+00:00)

Cosmos 1626 - Pass Details

Date: 09 May 2021
Orbit: 490 x 492 km, 82.5° (Epoch: 24 June)

Event Time Altitude Azimuth Distance (km) Brightness Sun altitude
Exits shadow 08:59:45 21° 249° (WSW) 1,146 3.4 -13.1°
Maximum altitude 09:01:06 27° 284° (WNW) 985 3.3 -12.9°
Drops below altitude 10° 09:04:17 10° 343° (NNW) 1,692 5.1 -12.4°
Sets 09:06:38 0° 356° (N) 2,579 6.2 -12.0°
